Wind_Speed
30 30 30 31 32 33 32 31 31 31 30 30 31 32 30 29 27 28 29 30 31 32 31 32 32 32 30 29 28 28 27 27 26 26 26 25 25 25 25 25 26 26 27
29 31 31 31 32 31 31 32 30 29 30 30 30 30 30 29 29 29 29 28 27 28 30 30 31 31 31 30 29 29 29 29 28 27 27 27 27 28 28 27 28 29 29
26 28 30 31 30 30 30 30 29 28 28 29 29 29 29 29 29 27 27 27 27 27 30 30 30 30 30 30 29 29 28 28 28 29 29 29 29 29 29 29 30 30 30
25 26 28 28 29 29 28 27 27 26 27 29 30 30 29 29 27 26 26 26 24 26 26 27 27 29 28 29 29 29 28 29 29 30 30 30 31 31 31 31 32 31 32
23 24 25 26 26 26 25 26 26 26 26 28 28 28 29 28 27 26 25 23 23 24 24 23 24 25 25 26 27 28 28 28 28 29 30 31 32 32 32 32 32 33 33
22 22 23 23 24 24 25 25 25 26 26 27 27 28 28 27 26 25 24 24 23 22 21 22 23 23 23 24 25 26 27 28 28 29 30 30 31 31 32 32 33 34 34
20 20 21 21 21 21 22 23 24 25 25 26 26 27 28 26 25 25 24 23 22 21 20 20 20 21 21 22 23 25 26 27 28 29 29 30 30 31 32 33 34 35 35
19 20 20 20 20 20 20 21 22 23 24 24 25 26 26 25 24 24 23 22 21 21 20 19 20 20 20 21 21 23 25 26 28 29 29 30 31 31 32 33 34 34 34
17 17 18 19 19 19 19 19 21 22 22 21 22 23 23 23 22 22 22 22 22 21 19 20 19 19 19 20 21 22 23 24 25 27 28 29 30 31 32 33 33 33 33
14 15 16 17 17 17 17 18 18 19 20 20 20 20 20 20 21 21 21 22 21 19 19 20 20 19 20 20 20 21 22 24 25 26 27 28 29 30 30 31 31 31 32
14 15 15 15 15 15 15 16 17 17 17 18 18 18 18 19 19 20 20 19 19 18 19 20 20 20 20 20 20 21 22 23 24 25 25 26 27 27 28 28 29 30 31
14 13 14 14 13 14 15 16 16 16 16 17 17 18 18 19 19 19 19 18 18 18 18 19 20 20 19 19 20 21 22 22 23 23 24 25 26 26 27 27 28 29 30
14 14 13 13 13 13 14 15 16 16 16 17 18 18 19 19 19 19 19 19 18 18 18 19 20 20 20 20 20 21 21 21 22 22 23 24 24 25 26 27 28 29 30
15 14 14 14 14 14 13 14 15 16 16 17 18 18 18 19 19 20 20 20 20 20 20 20 20 20 20 20 20 21 21 21 22 22 23 24 24 25 26 27 28 29 31
16 16 16 15 15 15 15 15 15 16 16 16 16 18 19 20 21 21 20 20 21 22 22 22 21 21 21 21 21 21 22 22 22 22 22 23 24 25 26 27 28 29 30
17 17 16 16 16 16 16 17 17 17 17 17 18 18 18 19 19 20 20 20 20 21 22 22 22 22 21 21 21 22 22 22 22 22 22 23 24 25 25 27 27 28 28
18 17 17 17 17 17 17 17 17 17 18 18 18 18 19 18 18 18 20 21 20 20 20 20 20 20 21 21 21 21 21 21 21 22 22 22 23 24 25 26 26 27 27
18 18 18 17 18 17 17 17 17 17 17 18 18 18 19 19 19 19 19 19 19 19 19 19 19 19 19 19 20 20 20 20 20 21 21 22 23 24 24 24 25 25 26
18 18 18 17 17 16 16 16 17 17 17 17 17 17 18 17 17 18 19 19 19 19 18 18 18 19 19 19 19 19 18 19 20 21 21 22 22 23 23 22 23 23 24
18 17 16 16 16 15 14 15 15 15 15 15 15 16 16 16 16 16 17 17 17 17 16 17 17 17 18 18 17 17 18 18 19 20 20 20 20 21 21 21 21 22 22
16 15 14 13 12 12 11 11 11 11 12 12 13 14 14 14 14 14 14 15 16 16 15 15 16 16 16 16 17 17 17 18 18 18 19 19 19 19 19 19 19 19 19
13 13 11 10 10 9 9 9 9 9 9 10 10 10 11 11 11 11 12 13 14 15 15 15 15 15 16 16 16 16 17 17 17 17 18 18 18 17 17 17 17 17 17
11 10 8 7 7 7 7 7 8 8 9 8 9 9 10 10 11 11 12 12 12 12 13 13 14 14 15 15 15 15 16 16 15 15 15 16 15 15 15 15 15 15 14
9 7 6 5 5 5 6 6 6 6 7 8 8 9 9 9 9 10 10 10 9 10 11 11 11 11 12 12 12 13 13 13 13 14 14 14 13 13 14 13 13 13 13
7 6 5 5 4 4 4 5 5 6 6 6 7 8 8 8 8 8 8 7 7 7 8 8 8 8 9 9 10 11 11 11 11 12 12 12 12 12 12 12 12 12 12
6 5 4 4 3 2 2 2 2 3 4 5 5 6 6 6 6 6 6 6 6 6 6 6 6 6 7 8 8 9 9 9 9 9 10 10 10 10 10 10 10 11 11
Wind_Direction
271 269 268 267 268 267 264 262 263 256 254 251 251 252 250 252 252 251 250 247 246 243 241 239 241 243 242 242 240 240 244 246 248 251 253 255 257 259 263 266 269 272 275
272 269 268 267 267 267 265 262 264 259 254 253 252 250 252 255 255 254 252 248 247 241 240 240 240 241 243 243 243 243 242 245 248 249 251 254 257 260 263 266 268 272 275
273 269 269 267 268 267 265 263 263 260 256 255 254 251 251 254 253 255 252 249 249 244 241 243 240 244 242 241 242 243 240 243 247 250 253 256 258 260 263 267 270 272 274
273 272 271 269 268 269 268 264 263 258 256 255 255 253 251 255 255 256 255 249 249 247 242 241 241 238 238 240 241 243 242 244 248 253 255 257 260 262 264 268 270 272 274
275 273 271 269 267 267 267 266 264 258 256 254 255 253 253 255 258 256 255 253 251 248 243 243 239 237 239 240 241 242 244 247 251 254 256 258 261 262 265 269 270 273 274
274 272 272 272 271 270 269 266 264 262 259 257 256 255 253 255 255 255 252 252 250 247 244 242 240 239 240 243 242 243 248 249 253 255 257 259 263 263 266 268 270 274 276
271 270 272 274 275 274 271 266 263 261 260 259 259 257 255 255 255 255 253 249 249 247 246 243 241 242 243 243 243 245 249 251 253 257 260 262 263 265 268 271 273 275 276
276 275 276 276 275 273 272 267 264 261 259 259 260 258 256 256 253 249 249 249 252 250 244 241 240 241 246 250 252 252 253 253 255 260 263 264 264 265 269 272 274 275 277
281 280 278 278 275 269 267 266 264 260 260 260 258 257 256 253 250 249 249 246 247 246 242 243 244 248 252 254 254 255 256 257 259 262 264 264 266 269 270 272 274 275 277
288 287 285 280 275 268 266 263 262 260 259 260 257 256 252 250 250 251 251 249 250 247 247 247 251 255 255 254 257 261 260 260 262 265 265 267 270 271 271 273 275 276 278
294 292 288 285 278 271 268 265 262 263 261 258 253 253 252 252 253 254 254 251 251 253 250 249 251 252 253 254 257 259 261 262 265 267 269 271 273 273 273 274 276 279 280
299 295 294 289 282 276 270 266 265 264 262 257 252 251 253 251 250 252 252 250 251 252 251 250 251 253 254 255 256 258 263 265 267 270 273 275 275 275 276 279 281 283 285
303 297 296 293 288 280 272 268 264 263 261 257 252 250 250 249 248 249 251 251 251 250 250 250 251 253 256 258 259 262 266 270 271 274 277 278 278 278 279 281 283 284 285
305 302 298 293 289 284 277 270 266 262 258 256 252 248 248 249 249 247 248 249 249 249 250 250 251 253 256 259 261 264 267 272 274 276 279 280 280 281 282 284 285 287 288
306 303 300 293 288 284 280 273 270 266 259 255 253 249 247 247 246 244 244 245 245 247 248 250 252 253 256 260 263 266 269 272 275 277 279 280 282 283 285 286 287 289 290
304 302 299 293 288 283 280 274 270 266 260 254 253 253 249 247 245 245 245 246 248 248 248 250 253 256 259 263 265 267 270 271 274 276 279 282 284 285 286 287 288 290 292
302 299 297 292 289 284 279 274 269 266 262 256 252 251 249 248 249 246 246 247 248 248 247 249 253 256 258 262 264 266 268 271 273 276 279 280 281 283 286 289 290 292 295
301 296 293 291 290 286 278 271 268 265 260 253 249 248 247 247 246 246 246 245 246 249 248 248 251 254 257 259 260 263 266 269 272 275 278 279 281 285 288 290 292 294 296
302 297 293 290 288 284 276 272 268 262 257 252 248 245 244 245 247 247 248 248 248 247 248 251 252 254 256 259 260 261 264 268 272 275 278 281 283 286 288 290 293 295 296
305 300 293 287 282 276 274 270 264 262 259 251 246 245 243 244 245 244 245 244 245 244 246 249 251 254 256 257 258 261 266 270 273 275 278 281 283 285 287 291 294 297 299
306 301 296 288 284 277 272 266 260 254 250 247 245 242 239 238 238 239 239 239 241 240 244 249 249 251 253 255 258 263 266 270 273 276 278 280 282 285 288 293 296 299 301
309 306 299 289 283 277 267 262 256 249 245 243 241 235 233 232 234 233 233 235 238 238 240 245 248 249 251 255 259 263 266 267 271 276 278 280 282 286 290 293 297 300 302
314 310 302 290 282 277 269 261 253 247 242 237 233 230 230 229 230 229 231 233 237 240 242 247 251 253 255 257 260 264 266 267 272 277 279 281 283 286 289 293 297 300 302
322 316 312 301 291 285 274 261 249 240 233 233 232 230 227 229 227 230 231 232 237 244 247 249 250 251 253 256 260 261 266 271 275 278 279 281 284 287 292 295 299 302 304
333 330 326 320 307 293 276 255 247 244 236 233 233 229 228 228 227 226 227 229 233 237 239 241 244 248 254 259 264 268 272 275 277 280 282 285 289 292 295 298 300 302 304
356 357 355 354 347 327 291 251 235 230 230 222 214 212 210 214 216 214 215 218 222 227 233 237 244 253 262 267 270 273 275 277 280 285 288 292 294 297 298 300 301 302 303
Height
5804 5804 5803 5803 5803 5803 5804 5805 5806 5805 5808 5811 5813 5814 5814 5815 5817 5818 5818 5820 5821 5823 5825 5828 5831 5834 5836 5838 5840 5842 5843 5845 5847 5848 5849 5850 5851 5852 5852 5853 5852 5852 5852
5796 5796 5796 5796 5796 5796 5797 5797 5798 5799 5801 5803 5804 5806 5808 5809 5810 5811 5812 5814 5815 5816 5817 5820 5823 5826 5829 5831 5833 5835 5837 5839 5841 5842 5843 5844 5845 5845 5846 5846 5846 5846 5845
5790 5789 5789 5790 5790 5790 5790 5791 5792 5793 5795 5797 5797 5799 5801 5803 5804 5805 5807 5808 5809 5810 5812 5814 5816 5819 5821 5824 5827 5828 5830 5832 5834 5836 5837 5838 5838 5839 5840 5840 5840 5840 5839
5784 5783 5783 5783 5783 5783 5784 5785 5786 5787 5789 5790 5792 5793 5795 5797 5798 5799 5800 5802 5802 5804 5806 5808 5810 5813 5815 5818 5820 5822 5824 5826 5828 5829 5830 5831 5832 5832 5833 5833 5833 5833 5832
5778 5778 5777 5777 5777 5777 5777 5778 5780 5781 5782 5784 5785 5787 5789 5791 5793 5794 5794 5796 5797 5798 5800 5802 5804 5806 5809 5811 5813 5816 5817 5819 5821 5821 5822 5823 5824 5825 5825 5825 5826 5825 5825
5772 5772 5771 5771 5771 5771 5771 5772 5773 5775 5776 5777 5779 5781 5782 5785 5787 5788 5789 5791 5793 5793 5794 5795 5798 5801 5803 5805 5807 5809 5811 5812 5814 5815 5816 5816 5817 5817 5818 5818 5818 5817 5817
5767 5767 5766 5765 5765 5765 5765 5766 5768 5769 5771 5772 5773 5775 5776 5779 5781 5783 5784 5785 5787 5787 5788 5790 5792 5795 5797 5799 5800 5802 5804 5805 5807 5808 5809 5810 5810 5810 5810 5810 5810 5809 5808
5763 5762 5761 5761 5760 5760 5760 5761 5763 5764 5765 5766 5767 5769 5771 5773 5775 5776 5778 5780 5781 5782 5783 5786 5788 5790 5791 5793 5794 5796 5798 5799 5800 5801 5801 5802 5802 5802 5803 5802 5802 5801 5800
5759 5758 5756 5756 5755 5755 5756 5757 5757 5758 5759 5761 5762 5763 5765 5767 5769 5770 5772 5774 5776 5777 5778 5781 5782 5784 5785 5787 5788 5789 5790 5791 5792 5793 5794 5795 5795 5795 5794 5794 5794 5794 5792
5754 5753 5752 5751 5750 5750 5751 5751 5752 5754 5754 5756 5757 5758 5760 5762 5764 5765 5766 5768 5769 5771 5773 5775 5776 5778 5779 5781 5782 5783 5784 5785 5785 5786 5787 5787 5787 5787 5787 5786 5786 5785 5784
5750 5749 5747 5746 5746 5745 5746 5747 5747 5748 5749 5750 5751 5753 5755 5757 5758 5760 5761 5762 5764 5766 5768 5769 5771 5772 5774 5775 5776 5777 5778 5778 5779 5779 5779 5779 5779 5779 5779 5778 5778 5777 5776
5746 5745 5743 5742 5741 5741 5741 5741 5742 5742 5743 5745 5746 5748 5749 5752 5753 5754 5756 5757 5759 5760 5762 5763 5765 5766 5768 5769 5770 5771 5772 5772 5772 5772 5772 5772 5772 5772 5771 5771 5770 5769 5768
5742 5741 5739 5738 5737 5736 5736 5737 5737 5737 5738 5739 5740 5742 5744 5746 5748 5749 5750 5752 5753 5755 5756 5758 5759 5760 5762 5763 5764 5765 5765 5765 5766 5766 5766 5765 5765 5764 5764 5763 5762 5761 5759
5738 5736 5735 5734 5733 5732 5732 5732 5732 5732 5733 5734 5735 5736 5738 5740 5742 5743 5745 5746 5748 5749 5751 5752 5753 5754 5756 5756 5757 5758 5758 5759 5759 5759 5759 5758 5758 5757 5757 5756 5754 5753 5751
5733 5732 5730 5729 5728 5727 5727 5727 5727 5727 5728 5728 5729 5730 5732 5734 5736 5737 5739 5741 5742 5743 5745 5746 5747 5748 5749 5750 5751 5751 5752 5752 5752 5752 5752 5752 5751 5750 5749 5748 5747 5745 5743
5728 5727 5725 5724 5723 5722 5721 5721 5721 5722 5722 5723 5724 5725 5726 5727 5729 5731 5732 5734 5736 5737 5738 5739 5740 5742 5743 5744 5744 5745 5745 5745 5746 5746 5745 5745 5744 5743 5742 5741 5739 5737 5735
5723 5721 5720 5718 5717 5716 5715 5715 5715 5715 5716 5717 5718 5719 5720 5721 5723 5724 5726 5728 5729 5730 5732 5733 5734 5735 5736 5737 5738 5738 5739 5739 5739 5739 5739 5738 5738 5736 5735 5733 5732 5730 5727
5717 5715 5713 5712 5711 5709 5709 5708 5708 5709 5709 5710 5711 5713 5714 5716 5717 5719 5720 5722 5723 5724 5726 5727 5728 5730 5731 5731 5732 5732 5733 5733 5733 5733 5733 5732 5731 5729 5728 5726 5724 5722 5720
5711 5709 5707 5706 5705 5704 5703 5702 5702 5703 5703 5704 5706 5707 5708 5710 5711 5713 5714 5716 5717 5719 5720 5721 5723 5724 5725 5726 5726 5727 5727 5727 5727 5727 5726 5725 5724 5723 5721 5720 5718 5716 5713
5705 5703 5701 5700 5699 5698 5697 5697 5697 5697 5698 5699 5700 5702 5703 5704 5706 5707 5709 5710 5712 5713 5715 5716 5718 5719 5719 5720 5721 5721 5721 5722 5721 5721 5720 5719 5718 5717 5715 5714 5712 5709 5707
5700 5698 5696 5694 5693 5693 5692 5692 5692 5693 5694 5695 5696 5697 5698 5700 5701 5703 5704 5705 5707 5709 5710 5711 5712 5713 5714 5715 5715 5716 5716 5716 5716 5715 5714 5713 5712 5711 5709 5708 5706 5703 5701
5695 5693 5691 5690 5689 5689 5689 5689 5689 5689 5690 5691 5692 5693 5694 5695 5697 5698 5700 5701 5703 5704 5705 5707 5708 5709 5709 5710 5710 5711 5711 5710 5710 5709 5709 5708 5706 5705 5704 5702 5700 5698 5696
5691 5689 5688 5687 5686 5686 5685 5685 5686 5686 5687 5688 5689 5690 5691 5692 5693 5695 5696 5698 5699 5700 5701 5702 5703 5704 5705 5705 5705 5706 5706 5705 5705 5704 5703 5702 5701 5700 5699 5697 5695 5694 5692
5688 5687 5685 5684 5683 5683 5683 5683 5683 5683 5684 5685 5686 5687 5688 5689 5690 5692 5693 5694 5695 5696 5697 5699 5700 5700 5701 5701 5701 5701 5701 5701 5700 5699 5698 5698 5697 5695 5694 5693 5691 5690 5688
5686 5684 5683 5682 5681 5681 5680 5680 5681 5681 5682 5683 5684 5685 5686 5687 5688 5689 5690 5691 5692 5694 5695 5696 5696 5697 5697 5697 5698 5697 5697 5696 5696 5695 5694 5693 5692 5691 5690 5689 5687 5686 5685
5685 5683 5682 5681 5680 5679 5679 5679 5679 5679 5680 5681 5681 5683 5684 5685 5686 5687 5688 5689 5691 5692 5692 5693 5694 5694 5694 5694 5694 5694 5693 5693 5692 5692 5691 5690 5689 5688 5687 5686 5685 5683 5682